Погода в Войтовцах

Украина / Хмельницкая область     49°29′53″N   26°26′33″E
темп.,
°C
ветер,
м/с
пор.,
м/с
влажн.,
%
обл.,
%
осадки,
мм/ч
давл.,
гПа
погр.,
м
20 января, чт
чт2023:00−3юз3792100 0.0 1020145
02:00−5ююз4986100 0.0 1018153
05:00−5ююз3986100 0.0 1014154
08:00−5юз3885100 0.0 1014125
11:00−1зюз7177779 0.0 1012774
14:000зюз61475100 0.0 1009787
17:00−1зюз71591100 0.1 1008649
20:00−2з71589100 0.3 1007691
21 января, пт
пт2123:00−4з71481100 0.1 1009836
02:00−5з71491100 0.3 1010806
05:00−4з91683100 0.3 10101026
08:00−5з91685100 0.3 10111041
11:00−4з10168197 0.0 10121053
14:00−4з101585100 0.0 10111025
17:00−4з81586100 0.0 1012913
20:00−5з91692100 0.1 1011940
22 января, сб
сб2223:00−4зсз91588100 0.7 1012931
02:00−5зсз81589100 0.8 1012816
05:00−5зсз81587100 0.0 1012799
08:00−5зсз81491100 0.2 1012832
11:00−4зсз81393100 0.4 1013947
14:00−3зсз71190100 1.1 1013939
17:00−5сз61191100 0.2 1015760
20:00−5ссз61290100 0.4 1017752
23 января, вс
вс2323:00−6сз499698 0.2 1019499
02:00−6ссз5109499 0.4 1020496
05:00−6сз51093100 0.2 1022595
08:00−6сз51094100 0.3 1022674
11:00−6сз5993100 0.8 1023788
14:00−6с5891100 1.4 1023715
17:00−7с499487 0.3 1025446
20:00−8с499691 0.4 1027295
24 января, пн
пн2423:00−9с379699 0.1 1029213
02:00−10с379689 0.2 1030209
05:00−12с379780 0.1 1031186
08:00−13с249894 0.1 103298
11:00−11ссз349399 0.0 1033220
14:00−9ссз3489100 0.1 1031395
17:00−12зсз229746 0.0 103227
20:00−13зсз229867 0.0 103233